Ireland West Airport Knock, Ireland

11:24 PM IST on August 27, 2016 (GMT +0100)
Connaught

Weather History for EIKN - February, 2014

Change the Weather History Date:

Wednesday, February 19, 2014

  Actual Average Record
Temperature  
Mean Temperature 44 °F -  
Max Temperature 49 °F - - ()
Min Temperature 40 °F - - ()
Degree Days  
Heating Degree Days 20    
Moisture  
Dew Point 45 °F    
Average Humidity 98    
Maximum Humidity 100    
Minimum Humidity 93    
Precipitation  
Precipitation 0.04 in - - ()
Sea Level Pressure  
Sea Level Pressure 29.58 in    
Wind  
Wind Speed 10 mph ()    
Max Wind Speed 18 mph    
Max Gust Speed -    
Visibility 4.3 miles    
Events Fog , Rain    
T = Trace of Precipitation, MM = Missing Value Source: Averaged Metar Reports

Daily Weather History Graph

Daily Weather History Graph

Search for Another Location

Airport or City:

Trip Planner

Search our weather history database for the weather conditions in past years. The results will help you decide how hot, cold, wet, or windy it might be!

Date:

Astronomy

Feb. 19, 2014 Rise Set
Actual Time 7:46 AM GMT 5:52 PM GMT
Civil Twilight 7:10 AM GMT 6:28 PM GMT
Nautical Twilight 6:29 AM GMT 7:09 PM GMT
Astronomical Twilight 5:48 AM GMT 7:50 PM GMT
Moon 11:20 PM GMT (2/19) 9:01 AM GMT (2/19)
Length of Visible Light 11h 18m
Length of Day
10h 05m
Waning Gibbous, 81% of the Moon is Illuminated
Feb 19
Waning Gibbous
Feb 22
Last Quarter
Mar 1
New
Mar 8
First Quarter
Mar 16
Full

Hourly Weather History & Observations

Time (GMT) Temp. Windchill Dew Point Humidity Pressure Visibility Wind Dir Wind Speed Gust Speed Precip Events Conditions
12:00 AM 42 °F - 42 °F 98% 29.73 in - SSW 6.7 mph - -  
1:00 AM 41 °F - 40 °F 97% 29.74 in - South 4.5 mph - -  
2:00 AM 42 °F - 41 °F 96% 29.74 in - SSW 4.5 mph - -  
3:00 AM 42 °F - 41 °F 96% 29.74 in - South 4.5 mph - -  
4:00 AM 42 °F - 42 °F 99% 29.73 in - SSE 4.5 mph - -  
5:00 AM 42 °F - 42 °F 100% 29.72 in - SSE 4.5 mph - -  
6:00 AM 43 °F - 43 °F 100% 29.71 in 0 mi SE 4.5 mph - - Rain Light Drizzle
7:00 AM 43 °F - 43 °F 100% 29.70 in 0 mi SSE 6.7 mph - - Rain Light Drizzle
8:00 AM 44 °F - 44 °F 99% 29.70 in 3 mi SSW 11.2 mph - - Rain Light Drizzle
8:00 AM 44.6 °F 39.2 °F 44.6 °F 100% 29.68 in 2.8 mi SSW 10.4 mph - N/A   Light Drizzle
8:30 AM 42.8 °F 36.6 °F 42.8 °F 100% 29.68 in 0.2 mi SSW 11.5 mph - N/A Fog Light Drizzle
9:00 AM 43 °F - 43 °F 99% 29.70 in 12 mi SSW 13.4 mph - - Fog Light Fog
9:00 AM 42.8 °F 35.8 °F 42.8 °F 100% 29.65 in 6.2 mi SSW 13.8 mph - N/A   Overcast
9:30 AM 42.8 °F 37.0 °F 42.8 °F 100% 29.65 in 6.2 mi South 10.4 mph - N/A   Mostly Cloudy
10:00 AM 44 °F - 44 °F 98% 29.69 in 19 mi South 11.2 mph - -   Mostly Cloudy
10:00 AM 44.6 °F 38.8 °F 44.6 °F 100% 29.65 in 6.2 mi South 11.5 mph - N/A   Mostly Cloudy
10:30 AM 44.6 °F 38.1 °F 44.6 °F 100% 29.65 in 0.3 mi South 13.8 mph - N/A Fog Fog
11:00 AM 45 °F - 45 °F 98% 29.68 in 9 mi South 11.2 mph - - Fog Light Fog
11:00 AM 44.6 °F 38.8 °F 44.6 °F 100% 29.65 in 6.2 mi South 11.5 mph - N/A   Overcast
11:30 AM 46.4 °F 40.4 °F 44.6 °F 93% 29.65 in 5.6 mi South 13.8 mph - N/A   Overcast
12:00 PM 46 °F - 45 °F 96% 29.68 in 12 mi South 13.4 mph - - Fog Light Fog
12:00 PM 46.4 °F 40.4 °F 44.6 °F 93% 29.65 in 6.2 mi South 13.8 mph - N/A   Overcast
12:30 PM 44.6 °F 38.4 °F 44.6 °F 100% 29.62 in 5.0 mi South 12.7 mph - N/A Rain Light Rain
1:00 PM 45 °F - 45 °F 100% 29.65 in 12 mi South 15.7 mph - - Rain Light Rain
1:30 PM 46.4 °F 40.4 °F 44.6 °F 93% 29.59 in 6.2 mi South 13.8 mph - N/A   Light Drizzle
2:00 PM 46 °F - 45 °F 96% 29.61 in 15 mi SSE 13.4 mph - - Rain Light Drizzle
2:00 PM 46.4 °F 40.4 °F 44.6 °F 93% 29.59 in 6.2 mi SSE 13.8 mph - N/A   Overcast
2:30 PM 46.4 °F 40.4 °F 44.6 °F 93% 29.56 in 5.0 mi SSE 13.8 mph - N/A Rain Light Rain
3:00 PM 46 °F - 45 °F 96% 29.58 in 2 mi SSE 15.7 mph - - Rain Light Rain
3:00 PM 46.4 °F 40.1 °F 44.6 °F 93% 29.56 in 1.9 mi SSE 15.0 mph - N/A Rain Light Rain
3:30 PM 46.4 °F 40.7 °F 44.6 °F 93% 29.53 in 2.5 mi SSE 12.7 mph - N/A Rain Light Rain
4:00 PM 46 °F - 46 °F 99% 29.54 in 1 mi SSE 15.7 mph - - Rain Light Rain
4:00 PM 46.4 °F 40.1 °F 46.4 °F 100% 29.50 in 0.9 mi SSE 15.0 mph - N/A Rain Light Rain
4:30 PM 46.4 °F 40.4 °F 46.4 °F 100% 29.50 in 0.4 mi SSE 13.8 mph - N/A Fog , Rain Light Rain
5:00 PM 46 °F - 46 °F 100% 29.51 in 0 mi SSE 13.4 mph - - Rain Light Rain
5:00 PM 46.4 °F 40.4 °F 46.4 °F 100% 29.47 in 0.5 mi SSE 13.8 mph - N/A Fog , Rain Light Rain
5:30 PM 46.4 °F 40.1 °F 46.4 °F 100% 29.44 in 0.5 mi SSE 15.0 mph - N/A Fog , Rain Light Rain
6:00 PM 47 °F - 47 °F 100% 29.46 in 0 mi SSE 15.7 mph - - Rain Light Rain
6:00 PM 46.4 °F 40.1 °F 46.4 °F 100% 29.44 in 0.3 mi SSE 15.0 mph - N/A Fog , Rain Light Rain
6:30 PM 46.4 °F 39.8 °F 46.4 °F 100% 29.42 in 0.3 mi SSE 16.1 mph - N/A Fog , Rain Light Rain
7:00 PM 47 °F - 47 °F 100% 29.42 in 0 mi SSE 13.4 mph - - Fog Partial Fog
7:00 PM 46.4 °F 40.7 °F 46.4 °F 100% 29.39 in 0.2 mi SSE 12.7 mph - N/A Fog Fog
8:00 PM 48 °F - 48 °F 100% 29.39 in - South 15.7 mph - -  
9:00 PM 49 °F - 49 °F 100% 29.35 in - South 17.9 mph - -  
10:00 PM 49 °F - 49 °F 100% 29.31 in - South 15.7 mph - -  
11:00 PM 49 °F - 49 °F 100% 29.26 in - South 15.7 mph - -